#timestamp,LO_Frequency,Hit,StdDev 
1615125615.8,286046992.8,N
1615125635.6,286046992.6,N
1615125655.4,286046994.1,N
1615125675.3,286046993.8,N
1615125695.1,286046991.8,N
1615125715.9,286046992.0,N
1615125735.7,286046994.8,N
1615125755.5,286046993.4,N
1615125775.4,286046994.4,N
1615125795.2,286046991.9,N
1615125815.0,286046996.4,N
1615125815.9,286046996.4,N
1615125835.8,286046994.1,N
1615125855.6,286046994.1,N
1615125875.5,286046995.2,N
1615125895.3,286046995.7,N
1615125915.1,286046994.9,N
1615125935.9,286046995.0,N
1615125955.7,286046993.6,Y
1615125975.5,286047001.1,P
1615125995.4,286046999.4,N
1615126015.2,286046998.1,N
1615126035.1,286046999.0,N
1615126036.0,286046999.0,N
1615126055.8,286046999.6,N
1615126075.6,286046999.6,N
1615126095.5,286047002.7,N
1615126115.3,286046999.8,N
1615126135.1,286047001.9,N
1615126155.9,286046998.7,N
1615126175.7,286046995.3,N
1615126195.6,286046996.1,N
1615126215.4,286046995.4,N
1615126235.2,286046996.7,N
1615126255.1,286046997.6,N
1615126256.0,286046997.6,N
1615126275.8,286046998.7,N
1615126295.6,286046996.7,N
1615126315.5,286046997.2,N
1615126335.3,286046997.2,N
1615126355.2,286046993.4,Y
1615126375.9,286046995.7,P
1615126395.7,286046995.4,P
1615126415.6,286046995.5,P
1615126435.4,286046994.0,Y
1615126455.3,286046997.5,P
1615126475.1,286046997.7,P
1615126476.0,286046997.7,P
1615126495.8,286046994.9,Y
1615126515.7,286046996.7,P
1615126535.5,286046995.1,P
1615126555.3,286046995.5,P
1615126575.2,286046997.3,Y
1615126595.0,286046998.1,P
1615126595.9,286046998.1,N
1615126615.8,286046999.1,N
1615126635.6,286046999.1,N
1615126655.4,286046999.3,N
1615126675.3,286046997.9,N
1615126695.1,286046999.6,N
1615126715.8,286046996.9,N
1615126735.7,286046995.1,Y
1615126755.5,286046998.5,P
1615126775.4,286047000.2,N
1615126795.2,286046998.1,N
1615126815.0,286046999.2,N
1615126815.9,286046999.2,N
1615126835.8,286046997.4,Y
1615126855.6,286046998.8,P
1615126875.4,286046999.5,P
1615126895.3,286047002.8,P
1615126915.1,286047003.7,N
1615126935.9,286047002.0,N
1615126955.7,286047001.7,N
1615126975.5,286047001.4,N
1615126995.4,286047002.1,N
1615127015.2,286046999.9,N
1615127035.0,286047000.8,N
1615127035.9,286047000.8,N
1615127055.8,286046999.0,N
1615127075.6,286046999.1,N
1615127095.5,286046999.2,N
1615127115.3,286046997.3,N
1615127135.1,286046999.6,N
1615127155.9,286046998.2,N
1615127175.7,286047000.0,N
1615127195.5,286047000.8,N
1615127215.4,286046999.4,N
1615127235.2,286046999.3,N
1615127255.1,286046996.6,N
1615127256.0,286046996.6,N
1615127275.8,286046999.4,N
1615127295.6,286046999.2,N
1615127315.5,286046997.1,N
1615127335.3,286046995.6,N
1615127355.1,286046997.6,N
1615127375.9,286046995.4,N
1615127395.7,286046993.3,Y
1615127415.5,286046995.1,P
1615127435.4,286046997.0,N
1615127455.2,286046998.9,N
1615127475.1,286047000.7,N
1615127476.0,286047000.7,N
1615127495.8,286047001.7,N
1615127515.6,286047005.3,N
1615127535.5,286047006.4,N
1615127555.3,286047004.6,N
1615127575.1,286047007.5,N
1615127595.9,286047005.0,N
1615127615.7,286047006.0,N
1615127635.6,286047003.8,N
1615127655.4,286047002.1,N
1615127675.2,286046999.8,N
1615127695.1,286047003.1,N
1615127696.0,286047003.1,N
1615127715.8,286047003.7,N
1615127735.6,286047003.6,N
1615127755.5,286047006.0,N
1615127775.3,286047005.5,N
1615127795.2,286047003.8,N
1615127815.9,286047003.0,N
1615127835.7,286047003.2,N
1615127855.6,286047005.4,N
1615127875.4,286047001.7,N
1615127895.2,286047002.4,N
1615127915.1,286047002.4,N
1615127916.0,286047002.4,N
1615127935.8,286047000.5,N
1615127955.7,286046998.8,N
1615127975.5,286046998.2,N
1615127995.3,286046999.3,N
1615128015.2,286047000.8,N
1615128035.9,286046998.7,N
1615128055.7,286047000.3,N
1615128075.6,286047000.0,N
1615128095.4,286047000.7,N
1615128115.2,286046998.4,N
1615128135.1,286046998.3,N
1615128136.0,286046998.3,N
1615128155.8,286046997.3,N
1615128175.7,286046998.0,N
1615128195.5,286046996.9,N
1615128215.3,286046995.0,N
1615128235.2,286046996.8,N
1615128255.0,286046997.4,N
1615128255.9,286046997.4,N
1615128275.7,286046997.9,N
1615128295.6,286046995.7,N
1615128315.4,286046995.6,N
1615128335.3,286046996.8,N
1615128355.1,286046996.7,N
1615128356.0,286046996.7,N
1615128375.8,286046999.4,N
1615128395.7,286046998.3,N
1615128415.5,286046999.1,N
1615128435.3,286046999.3,N
1615128455.2,286046998.2,N
1615128475.0,286046999.9,N
1615128475.9,286046999.9,N
1615128495.8,286047001.7,N
1615128515.6,286047005.5,Y
1615128535.4,286047004.7,P
1615128555.3,286047005.7,N
1615128575.1,286047003.4,N
1615128595.9,286047001.7,N
1615128615.7,286046999.7,N
1615128635.5,286047000.0,N
1615128655.4,286047000.9,N
1615128675.2,286046998.5,N
1615128695.0,286046998.1,N
1615128695.9,286046998.1,N
1615128715.8,286047000.1,N
1615128735.6,286047003.3,N
1615128755.5,286047004.7,N
1615128775.3,286047009.0,Y
1615128795.1,286047008.5,P
1615128815.9,286047009.6,N
1615128835.7,286047010.1,N
1615128855.5,286047008.1,N
1615128875.4,286047010.1,Y
1615128895.2,286047000.2,P
1615128915.1,286047000.5,N
1615128916.0,286047000.5,N
1615128935.8,286047001.4,N
1615128955.6,286047001.5,N
1615128975.5,286047001.6,N
1615128995.3,286047003.9,N
1615129015.2,286047003.7,N
1615129035.9,286047004.2,N
1615129055.7,286047004.4,N
1615129075.6,286047003.6,N
1615129095.4,286047005.2,N
1615129115.2,286047007.6,Y
1615129135.1,286047001.3,P
1615129136.0,286047001.3,N
1615129155.8,286047000.0,N
1615129175.7,286047000.5,N
1615129195.5,286046996.9,Y
